Location: Gorze? G�rny
(49.8500°N, 19.5000°E)
Time: 12:54:45
(UTC+00:00)

NOSS 3-4 (A) - Pass Details

Date: 13 May 2021
Orbit: 872 x 1340 km, 63.4° (Epoch: 06 May)

Event Time Altitude Azimuth Distance (km) Brightness Sun altitude
Rises 19:41:42 0° 316° (NW) 3,777 8.8 -11.2°
Reaches altitude 10° 19:44:11 10° 316° (NW) 2,884 7.5 -11.5°
Maximum altitude 19:51:06 85° 230° (SW) 1,160 3.9 -12.2°
Enters shadow 19:57:24 17° 143° (SE) 2,712 5.1 -12.9°
